Flag for U.S.A. Weather past 2 weeks in Orlando, Florida, U.S.A.

Now
92 °F

Sunny.


Feels Like: 103 °F
Forecast: 76 / 94 °F
Wind: 6 mph from South

Location: Orlando Executive Airport

Current Time: Aug 22, 2014 at 1:52:27 PM

Latest Report: Aug 22, 2014 at 12:53 PM


Visibility: 10 mi

Pressure: 30.07 "Hg

Humidity: 58%

Dew point: 75 °F

Location of OrlandoLocation

Historic Weather in Orlando — Graph

°F

Orlando temperature yesterday

Maximum temperature yesterday: 96 °F (at 3:53 PM)
Minimum temperature yesterday: 79 °F (at 8:53 PM)
Average temperature yesterday: 86 °F

Past Weeks' High & Low Weather Summary

 TemperatureHumidityPressure
High96 °F (Aug 21, 3:53 PM)97% (Aug 8, 1:53 AM)30.15 "Hg (Aug 8, 1:53 AM)
Low74 °F (Aug 17, 6:53 AM)44% (Aug 20, 3:53 PM)29.96 "Hg (Aug 7, 3:53 PM)
Average83 °F76%30.04 "Hg
* Reported Aug 7 11:53 AM — Aug 22 11:53 AM, Orlando, Weather by CustomWeather, © 2014

Note: Actual official high and low records may vary slightly from our data, if they occured in-between our weather recording intervals... More about our weather records

Advertising

Orlando weather history for previous 24 hours

 ConditionsComfort  
Time TempWeatherWind HumidityBarometerVisibility
11:53 AM
Aug 22
90 °FSunny.5 mph61%30.09 "Hg10 mi
10:53 AM88 °FSunny.3 mph67%30.10 "Hg10 mi
9:53 AM86 °FSunny.No wind75%30.10 "Hg10 mi
8:53 AM83 °FSunny.3 mph79%30.09 "Hg10 mi
7:53 AM80 °FClear.No wind87%30.09 "Hg10 mi
6:53 AM80 °FClear.6 mph85%30.08 "Hg10 mi
5:53 AM79 °FPassing clouds.No wind84%30.07 "Hg10 mi
4:53 AM80 °FClear.3 mph81%30.06 "Hg10 mi
3:53 AM80 °FClear.3 mph81%30.06 "Hg10 mi
2:53 AM80 °FClear.3 mph85%30.07 "Hg10 mi
1:53 AM81 °FClear.6 mph79%30.08 "Hg10 mi
12:53 AM80 °FClear.3 mph79%30.11 "Hg10 mi
11:53 PM
Aug 21
79 °FClear.3 mph79%30.11 "Hg10 mi
10:53 PM81 °FClear.No wind74%30.13 "Hg10 mi
9:53 PM80 °FClear.No wind71%30.12 "Hg10 mi
8:53 PM79 °FLight rain. Partly sunny.3 mph77%30.12 "Hg10 mi
7:53 PM84 °FCloudy.6 mph72%30.10 "Hg10 mi
6:53 PM87 °FThundershowers. Partly sunny.7 mph63%30.07 "Hg10 mi
5:53 PM89 °FPassing clouds.12 mph59%30.04 "Hg10 mi
4:53 PM95 °FPartly sunny.5 mph46%30.04 "Hg10 mi
3:53 PM96 °FPartly sunny.5 mph47%30.05 "Hg10 mi
2:53 PM95 °FPartly sunny.6 mph47%30.07 "Hg10 mi
1:53 PM94 °FSunny.3 mph49%30.09 "Hg10 mi
Weather by CustomWeather, © 2014

See weather overviewHow to use our weather pages